Location: Unspecified
(0.0000°N, 0.0000°E)
Time: 09:01:16
(UTC+00:00)

Vanguard 2 Rocket - Pass Details

Date: 07 October 2022
Orbit: 555 x 3321 km, 32.9° (Epoch: 06 December)

Event Time Altitude Azimuth Distance (km) Brightness Sun altitude
Rises 20:36:54 0° 265° (W) 7,246 12.3 -42.0°
Reaches altitude 10° 20:42:57 10° 275° (W) 6,278 11.7 -43.5°
Maximum altitude 20:58:56 29° 328° (NNW) 4,421 10.3 -47.5°
Enters shadow 21:05:06 24° 358° (N) 4,380 10.2 -49.0°
Drops below altitude 10° 21:11:39 10° 24° (NNE) 4,929 - -50.6°
Sets 21:15:44 0° 35° (NE) 5,537 - -51.6°
